Regional Weather Roundup
Issued by NWS

Home | Current Version | Previous Version | Text Only | Print | Product List | Glossary On
Versions: 1 2 3 4 5 6 7 8 9 10 11 12 13 14 15 16 17 18 19 20 21 22 23 24 25 26 27 28 29 30 31 32 33 34 35 36 37 38 39 40 41 42 43 44 45 46 47 48 49 50
000
ASUS44 KJAN 280110
RWRMS

MISSISSIPPI HOURLY WEATHER ROUNDUP
NATIONAL WEATHER SERVICE JACKSON MS
700 PM CST TUE JAN 27 2015

NOTE: "FAIR: INDICATES FEW OR NO CLOUDS BELOW 12,000 FEET WITH NO
SIGNIFICANT WEATHER AND/OR OBSTRUCTIONS TO VISIBILITY.

MSZ001>002-007>008-010>013-018>021-025>028-034>036-280200-
NORTHWEST MISSISSIPPI

CITY           SKY/WX    TMP DP  RH WIND       PRES   REMARKS
CLARKSDALE     FAIR      45  39  81 N5        30.19R
CLEVELAND      FAIR      49  42  75 N3        30.17R
GREENWOOD      CLEAR     48  36  63 N6        30.16R
GREENVILLE     CLEAR     50  40  68 CALM      30.16R
GRENADA        FAIR      46  37  71 N8        30.17R
OLIVE BRANCH   CLEAR     45  36  70 N8        30.19
OXFORD         FAIR      45  32  61 N6        30.19R
TUNICA         CLEAR     43  37  81 N8        30.20R
$$

MSZ003>006-009-014>017-022>024-029>033-037>039-280200-
NORTHEAST MISSISSIPPI

CITY           SKY/WX    TMP DP  RH WIND       PRES   REMARKS
COLUMBUS AFB   CLEAR     44  35  68 N2        30.14R
CORINTH        FAIR      45  32  61 N8G14     30.17R
STARKVILLE     FAIR      45  36  70 CALM      30.14R
TUPELO         CLEAR     48  32  53 N7        30.16R
$$

MSZ040-058-280200-
CENTRAL MISSISSIPPI

CITY           SKY/WX    TMP DP  RH WIND       PRES   REMARKS
JACKSON INTL   CLEAR     53  35  50 N5        30.15R
JACKSON HAWKNS CLEAR     55  36  48 N6        30.15R
MERIDIAN KEY   CLEAR     47  35  63 NW3       30.12R
MERIDIAN NAS   CLEAR     50  35  56 N5        30.13R
RAYMOND        FAIR      50  45  81 MISG      30.15S
VICKSBURG      CLEAR     52  39  61 CALM      30.16R
$$

MSZ059>079-280200-
SOUTH MISSISSIPPI

CITY           SKY/WX    TMP DP  RH WIND       PRES   REMARKS
BROOKHAVEN     FAIR      57  36  44 CALM      30.15R
HATTIESBURG    CLEAR     52  37  56 CALM      30.11R
MCCOMB         CLEAR     56  36  47 N6        30.13R
NATCHEZ        CLEAR     57  36  44 NW3       30.16R
PINE BELT      CLEAR     48  34  57 NW3       30.12R
$$

MSZ080>082-280200-
COASTAL MISSISSIPPI

CITY           SKY/WX    TMP DP  RH WIND       PRES   REMARKS
BAY ST LOUIS   CLEAR     48  41  76 CALM      30.11R
BILOXI         CLEAR     58  40  51 CALM      30.09R
PASCAGOULA     CLEAR     50  44  80 CALM      30.09R
GULFPORT       PTCLDY    56  41  57 CALM      30.09R
$$



USA.gov is the U.S. government's official web portal to all federal, state and local government web resources and services.